Date,TemperatureHighF,TemperatureAvgF,TemperatureLowF,DewpointHighF,DewpointAvgF,DewpointLowF,HumidityHigh,HumidityAvg,HumidityLow,PressureMaxIn,PressureMinIn,WindSpeedMaxMPH,WindSpeedAvgMPH,GustSpeedMaxMPH,PrecipitationSumIn
2013-1-1,33,24,16,32,21,13,96,87,75,30.26,30.07,7,2,11,0.01
2013-1-2,32,19,10,23,15,7,92,85,57,30.28,30.18,3,0,5,0.01
2013-1-3,41,28,15,31,23,13,94,81,61,30.39,30.22,5,1,11,0.07
2013-1-4,42,29,20,25,23,18,94,79,47,30.42,30.30,12,2,16,0.05
2013-1-5,46,35,20,33,27,19,93,75,51,30.30,30.09,9,1,15,0.02
2013-1-6,42,33,20,33,25,18,92,75,57,30.37,30.07,11,3,27,0.00
2013-1-7,49,32,18,29,23,16,93,72,39,30.39,30.14,8,2,14,0.00
2013-1-8,57,41,23,35,26,21,93,62,25,30.19,30.05,8,2,12,0.00
2013-1-9,58,48,38,46,39,32,96,73,40,30.43,30.16,9,1,12,0.00
2013-1-10,57,48,42,57,42,28,99,85,48,30.42,29.75,9,2,15,0.43
2013-1-11,65,56,48,54,50,47,98,80,56,29.84,29.72,12,3,17,0.00
2013-1-12,57,47,32,51,41,31,96,82,50,29.92,29.77,10,2,16,0.81
2013-1-13,32,26,16,31,22,14,94,86,75,30.36,29.89,9,3,15,0.00
2013-1-14,29,19,12,17,13,9,91,80,49,30.51,30.36,5,1,9,0.00
2013-1-15,30,21,9,23,15,7,92,80,58,30.43,30.14,5,1,8,0.00
2013-1-16,44,28,14,25,19,12,92,74,41,30.16,30.04,10,1,15,0.00
2013-1-17,43,33,22,31,24,19,89,71,39,30.48,30.13,11,2,17,0.00
2013-1-18,57,38,19,29,23,17,93,62,28,30.49,30.12,11,3,20,0.00
2013-1-19,67,53,40,36,32,28,64,47,29,30.13,29.88,15,4,24,0.00
2013-1-20,48,34,26,33,17,10,76,51,33,30.31,30.11,8,2,14,0.00
2013-1-21,29,22,17,13,6,-1,72,52,33,30.40,30.28,15,4,19,0.00
2013-1-22,22,17,13,9,2,-2,84,52,37,30.48,30.36,4,1,7,0.00
2013-1-23,48,27,10,25,17,8,90,69,41,30.38,30.14,8,1,12,0.00
2013-1-24,30,24,16,16,9,3,70,54,40,30.58,30.21,10,3,14,0.00
2013-1-25,46,35,28,24,20,14,70,55,41,30.22,30.11,10,2,15,0.00
2013-1-26,46,32,25,23,19,15,88,63,33,30.37,30.22,5,1,9,0.00
2013-1-27,56,39,28,54,36,19,96,87,63,30.27,29.93,10,2,16,0.20
2013-1-28,74,64,56,62,59,54,92,84,64,29.93,29.80,7,2,17,0.00
2013-1-29,68,62,52,61,59,51,98,87,73,29.79,29.39,13,4,25,1.54
2013-1-30,52,39,28,52,35,19,98,84,68,29.92,29.31,21,6,28,0.09
2013-1-31,36,26,13,27,17,2,89,68,59,30.39,29.92,15,5,21,0.00
2013-2-1,30,20,8,16,6,1,80,57,35,30.50,30.23,10,2,15,0.00
2013-2-2,45,35,27,30,22,11,91,61,45,30.22,30.02,12,3,21,0.00
2013-2-3,40,32,26,31,22,13,96,69,35,30.18,29.97,18,3,25,0.00
2013-2-4,62,43,28,36,29,21,89,59,36,29.97,29.74,15,3,22,0.00
2013-2-5,59,39,22,35,28,20,94,71,37,30.12,29.88,11,2,22,0.00
2013-2-6,56,40,23,33,29,22,95,69,37,30.21,30.02,8,2,11,0.00
2013-2-7,58,46,36,48,38,31,96,77,53,30.02,29.82,8,1,15,0.11
2013-2-8,41,36,33,38,31,28,91,83,78,30.34,30.02,13,3,17,0.00
2013-2-9,44,36,30,36,30,27,94,78,58,30.35,29.98,7,2,14,0.21
2013-2-10,59,49,38,54,42,31,96,81,40,29.98,29.56,13,4,26,0.42
2013-2-11,52,41,28,31,27,25,90,60,37,30.13,29.79,18,5,31,0.00
2013-2-12,47,35,22,33,28,20,94,79,56,30.15,29.93,3,0,6,0.00
2013-2-13,55,44,36,34,32,26,88,66,35,29.94,29.79,14,2,20,0.00
2013-2-14,58,46,36,36,32,30,84,63,38,30.04,29.79,13,3,18,0.00
2013-2-15,41,35,26,32,20,11,83,58,31,30.25,30.04,10,3,15,0.00
2013-2-16,39,27,19,18,14,8,84,61,30,30.27,30.16,8,2,15,0.00
2013-2-17,52,37,20,33,23,16,83,61,34,30.18,29.87,9,2,14,0.00
2013-2-18,56,47,34,49,40,27,93,78,68,29.90,29.52,14,6,27,0.19
2013-2-19,38,31,25,26,16,9,75,56,33,30.30,29.91,16,5,26,0.00
2013-2-20,29,24,18,15,13,10,73,62,52,30.41,30.28,9,1,9,0.00
2013-2-21,32,27,22,31,22,15,96,84,69,30.31,29.80,16,3,23,0.00
2013-2-22,35,31,19,33,27,17,97,87,65,30.07,29.79,11,2,16,0.11
2013-2-23,39,26,14,23,19,12,93,76,50,30.07,29.97,7,1,12,0.35
2013-2-24,49,33,15,29,23,13,93,70,40,30.11,30.01,7,1,11,0.31
2013-2-25,48,38,27,34,30,25,93,74,51,30.04,29.57,12,3,24,0.42
2013-2-26,41,37,34,40,36,32,97,96,93,29.67,29.31,13,3,17,0.69
2013-2-27,34,33,32,33,31,29,95,93,89,29.90,29.67,16,4,16,0.06
2013-2-28,36,33,32,30,30,29,93,87,79,30.09,29.90,8,3,15,0.00
2013-3-1,34,31,29,31,28,25,94,90,83,30.19,30.06,8,2,12,0.07
2013-3-2,36,28,18,25,21,16,91,75,53,30.26,30.18,9,3,14,0.01
2013-3-3,41,30,14,27,20,12,92,70,42,30.21,30.00,5,1,9,0.00
2013-3-4,55,44,37,41,33,26,90,66,49,30.00,29.70,10,3,18,0.00
2013-3-5,41,36,32,38,30,23,96,82,64,30.13,29.75,16,5,28,0.16
2013-3-6,39,32,22,26,24,20,92,72,58,30.35,30.14,10,3,20,0.00
2013-3-7,51,34,18,31,25,16,93,73,44,30.41,30.27,8,1,10,0.00
2013-3-8,54,42,25,34,30,24,95,67,40,30.39,30.16,9,2,14,0.00
2013-3-9,72,54,41,45,37,31,90,57,25,30.16,29.75,12,3,19,0.32
2013-3-10,62,53,45,53,50,41,97,89,47,29.74,29.59,8,2,22,1.69
2013-3-11,45,36,33,42,32,28,94,85,75,29.98,29.70,14,5,20,0.01
2013-3-12,52,38,29,28,26,24,87,65,36,30.21,29.97,16,4,24,0.00
2013-3-13,44,34,24,26,20,16,87,60,36,30.41,30.22,12,4,23,0.00
2013-3-14,55,38,23,33,26,20,92,67,40,30.40,30.05,6,1,16,0.00
2013-3-15,75,52,28,48,39,27,96,67,34,30.06,29.63,4,0,8,0.00
2013-3-16,66,50,40,47,40,36,87,71,45,30.00,29.62,11,3,21,0.01
2013-3-17,39,36,33,37,34,32,96,93,89,30.05,29.75,9,2,19,1.58
2013-3-18,51,42,37,39,36,22,98,81,49,30.01,29.67,13,3,19,0.02
2013-3-19,49,38,30,25,20,13,80,51,25,30.21,30.01,8,2,17,0.00
2013-3-20,38,33,25,32,20,11,90,61,35,30.26,30.11,11,3,23,0.00
2013-3-21,42,29,16,21,16,12,91,62,34,30.12,29.96,7,1,10,0.00
2013-3-22,43,37,33,29,25,21,69,61,48,30.02,29.95,6,1,10,0.00
2013-3-23,54,44,38,39,30,22,88,58,40,30.01,29.79,12,2,16,0.10
2013-3-24,42,34,31,39,33,30,96,94,89,29.83,29.55,9,2,19,0.08
2013-3-25,35,32,29,32,29,27,95,90,82,30.20,29.84,8,2,18,0.21
2013-3-26,41,34,25,28,26,23,93,74,52,30.35,30.20,9,3,16,0.34
2013-3-27,48,35,18,32,25,17,93,71,38,30.39,30.27,7,0,9,0.02
2013-3-28,60,47,36,40,35,30,88,65,43,30.32,30.18,6,1,12,0.00
2013-3-29,64,52,39,48,43,37,95,74,46,30.22,30.12,5,1,10,0.03
2013-3-30,55,45,34,49,43,33,98,92,71,30.16,29.89,8,1,11,0.13
2013-3-31,69,56,47,52,44,34,98,69,29,29.90,29.81,12,2,16,0.00
2013-4-1,52,44,30,36,26,18,81,52,27,30.21,29.89,12,3,15,0.00
2013-4-2,51,35,22,26,20,13,93,62,23,30.34,30.22,8,1,10,0.00
2013-4-3,53,38,24,31,24,20,89,63,29,30.38,30.24,8,2,14,0.00
2013-4-4,62,43,25,30,26,20,93,58,20,30.22,30.00,7,1,15,0.00
2013-4-5,71,51,30,39,33,27,91,56,27,30.15,29.99,5,1,13,0.00
2013-4-6,76,64,51,45,39,34,62,42,26,29.99,29.67,17,4,27,0.00
2013-4-7,80,68,51,60,50,45,87,56,33,29.86,29.68,9,1,15,0.08
2013-4-8,80,70,60,61,58,54,89,66,46,29.80,29.68,12,3,17,0.00
2013-4-9,79,71,63,63,60,58,83,69,57,29.82,29.73,13,3,23,0.00
2013-4-10,86,70,59,68,63,57,98,81,44,29.75,29.50,14,2,29,1.29
2013-4-11,60,46,41,59,41,32,98,84,67,29.72,29.60,13,4,23,0.06
2013-4-12,46,41,35,36,32,29,91,72,58,30.00,29.71,18,3,18,0.00
2013-4-13,66,49,29,44,35,28,96,64,34,30.05,29.85,6,1,14,0.01
2013-4-14,81,65,45,55,48,41,86,57,29,29.84,29.53,19,4,25,0.00
2013-4-15,73,63,54,63,57,51,96,82,68,29.86,29.67,8,2,16,0.02
2013-4-16,54,48,45,51,46,44,96,95,86,30.10,29.85,11,2,16,0.68
2013-4-17,86,66,49,69,58,47,97,78,49,30.08,29.62,13,2,22,0.00
2013-4-18,76,60,42,68,56,34,98,86,70,29.75,29.50,19,5,26,1.79
2013-4-19,53,44,34,34,28,24,87,57,34,30.05,29.74,17,5,27,0.00
2013-4-20,60,44,28,34,29,21,96,61,26,30.29,30.05,8,1,11,0.00
2013-4-21,66,54,44,42,37,32,65,53,36,30.36,30.18,9,2,13,0.00
2013-4-22,74,58,35,47,40,34,96,57,27,30.22,29.91,11,2,20,0.00
2013-4-23,58,50,40,57,48,39,97,90,66,30.01,29.82,7,1,13,1.01
2013-4-24,56,44,34,39,35,27,96,74,36,30.23,29.98,11,3,16,0.04
2013-4-25,68,49,32,41,34,29,96,63,28,30.33,30.23,9,1,18,0.01
2013-4-26,60,52,45,50,45,39,95,78,59,30.33,30.22,8,2,19,0.09
2013-4-27,54,51,48,53,51,47,99,97,95,30.24,29.89,7,0,9,0.45
2013-4-28,59,53,44,53,51,44,99,93,79,29.94,29.86,7,2,12,0.00
2013-4-29,84,64,41,62,53,40,99,73,38,29.89,29.71,9,2,17,0.01
2013-4-30,89,74,56,62,56,48,96,58,25,29.87,29.74,12,2,19,0.00
2013-5-1,86,70,52,62,56,51,97,66,38,30.00,29.88,9,1,13,0.00
2013-5-2,74,59,43,62,54,42,98,85,54,30.11,29.99,8,2,17,0.46
2013-5-3,43,40,39,42,40,38,97,96,95,30.06,29.81,10,2,12,2.34
2013-5-4,54,45,39,43,40,37,98,84,53,29.97,29.81,6,1,9,0.00
2013-5-5,60,51,40,58,50,39,98,96,88,29.97,29.85,5,1,8,0.10
2013-5-6,70,61,53,57,54,52,98,81,56,29.94,29.87,8,1,16,0.01
2013-5-7,78,66,54,59,56,52,98,72,45,29.98,29.91,5,0,9,0.00
2013-5-8,85,65,47,62,54,47,99,74,31,29.99,29.90,6,1,14,0.01
2013-5-9,79,68,60,66,61,57,97,81,49,29.93,29.78,13,2,23,0.07
2013-5-10,69,62,57,62,58,53,98,88,68,29.95,29.78,10,2,16,0.19
2013-5-11,72,60,44,55,46,32,97,65,28,30.12,29.95,15,3,20,0.00
2013-5-12,64,50,33,41,33,25,96,61,24,30.21,30.11,11,2,19,0.00
2013-5-13,77,56,33,50,40,32,97,62,27,30.20,29.98,7,1,12,0.00
2013-5-14,94,74,52,57,52,47,91,51,24,29.98,29.75,11,3,21,0.00
2013-5-15,91,77,64,67,59,52,82,55,36,29.89,29.74,9,2,16,0.00
2013-5-16,83,70,59,68,63,57,96,78,46,29.87,29.79,10,1,15,0.00
2013-5-17,78,68,58,71,64,57,98,88,66,29.89,29.83,5,0,9,0.06
2013-5-18,85,71,59,69,65,59,100,84,56,29.94,29.80,6,1,9,0.00
2013-5-19,91,79,67,75,69,64,97,74,46,29.83,29.62,6,1,17,0.00
2013-5-20,81,72,62,71,67,61,98,84,67,29.83,29.62,14,2,36,0.85
2013-5-21,79,71,62,68,64,61,96,79,60,29.74,29.62,10,2,17,0.02
2013-5-22,75,68,60,63,59,55,97,75,53,29.82,29.61,16,3,22,0.00
2013-5-23,65,61,54,60,55,51,96,83,69,30.16,29.82,11,2,17,0.01
2013-5-24,73,56,42,53,43,35,98,67,29,30.36,30.17,5,1,11,0.01
2013-5-25,70,57,42,62,52,41,97,85,58,30.28,30.07,7,0,10,0.20
2013-5-26,85,71,53,69,62,53,99,76,55,30.12,29.93,9,1,13,0.00
2013-5-27,84,72,64,71,65,61,97,79,64,29.94,29.68,12,2,21,0.51
2013-5-28,85,75,64,72,68,64,98,78,61,29.82,29.73,8,1,17,0.04
2013-5-29,88,78,65,69,66,62,96,69,46,29.88,29.73,15,2,20,0.00
2013-5-30,83,74,64,75,68,64,97,81,65,29.85,29.73,16,2,23,0.93
2013-5-31,80,71,64,73,67,63,98,89,78,29.83,29.66,8,2,24,1.51
2013-6-1,78,69,61,69,64,59,99,87,63,29.84,29.68,9,2,18,0.64
2013-6-2,67,63,60,60,58,56,94,84,76,29.97,29.84,10,1,12,0.00
2013-6-3,74,63,55,57,54,50,95,73,47,30.04,29.92,7,1,10,0.00
2013-6-4,77,62,48,63,56,47,98,81,51,30.03,29.93,5,0,10,0.00
2013-6-5,83,68,54,67,60,54,99,79,44,29.95,29.79,4,0,8,0.01
2013-6-6,79,68,58,65,60,56,97,78,50,29.82,29.77,11,1,14,0.00
2013-6-7,75,63,52,61,57,51,98,82,58,29.86,29.81,7,1,14,0.00
2013-6-8,81,66,50,62,56,49,98,74,43,29.92,29.83,7,1,12,0.00
2013-6-9,79,66,59,68,62,57,98,88,64,29.88,29.73,7,1,24,0.17
2013-6-10,81,69,61,67,63,60,99,83,56,29.85,29.73,10,1,15,0.01
2013-6-11,92,76,56,77,68,56,99,80,50,29.90,29.78,9,1,17,0.00
2013-6-12,94,84,68,76,72,67,95,70,52,29.88,29.68,13,3,26,0.00
2013-6-13,84,76,63,72,66,61,95,72,54,29.92,29.68,10,2,17,0.00
2013-6-14,86,71,56,67,62,56,98,76,46,30.02,29.88,5,0,9,0.00
2013-6-15,88,73,63,72,66,61,98,82,54,30.04,29.88,9,1,14,0.11
2013-6-16,86,74,67,76,71,67,99,91,67,29.96,29.84,6,1,10,0.08
2013-6-17,87,72,65,76,69,64,99,91,69,29.89,29.78,6,0,22,0.02
2013-6-18,88,73,59,73,66,59,100,82,52,29.91,29.84,6,1,10,0.01
2013-6-19,88,72,57,70,64,57,99,79,44,29.99,29.90,3,0,7,0.01
2013-6-20,91,76,61,72,67,60,99,77,49,30.04,29.96,8,1,15,0.00
2013-6-21,92,80,68,76,72,67,98,78,58,30.03,29.92,7,1,17,0.00
2013-6-22,90,75,68,77,70,66,95,86,62,30.01,29.93,9,1,17,0.01
2013-6-23,90,75,66,76,69,65,98,84,59,29.99,29.86,9,2,22,0.00
2013-6-24,91,79,66,77,71,65,99,80,54,29.99,29.85,8,1,13,0.00
2013-6-25,93,82,72,76,73,70,94,76,56,29.89,29.71,10,2,16,0.00
2013-6-26,93,80,72,78,74,71,99,84,57,29.78,29.64,8,1,14,0.00
2013-6-27,94,80,67,77,71,67,99,79,43,29.82,29.68,8,1,12,0.00
2013-6-28,89,79,68,73,67,58,98,70,39,29.77,29.64,11,2,19,0.00
2013-6-29,84,72,64,69,63,59,96,75,48,29.68,29.59,13,2,29,0.00
2013-6-30,78,68,64,67,64,62,98,86,65,29.86,29.67,9,1,16,0.00
2013-7-1,80,69,59,63,60,56,98,75,45,29.91,29.84,13,1,14,0.00
2013-7-2,67,63,61,63,60,57,98,88,73,29.99,29.88,4,0,13,0.00
2013-7-3,84,70,59,66,62,59,99,78,44,30.03,29.94,4,0,8,0.00
2013-7-4,86,72,57,67,62,57,98,75,47,30.02,29.92,5,0,9,0.00
2013-7-5,87,73,60,70,66,59,99,80,48,30.01,29.92,3,0,10,0.00
2013-7-6,91,73,64,71,67,62,99,84,46,29.98,29.88,7,1,14,0.00
2013-7-7,92,77,64,75,69,63,99,79,48,29.98,29.91,7,1,12,0.00
2013-7-8,93,77,67,78,71,66,97,83,56,30.02,29.93,5,0,10,0.78
2013-7-9,94,83,72,78,74,70,95,77,56,29.97,29.84,7,1,11,0.00
2013-7-10,87,77,71,80,74,70,98,90,74,29.94,29.82,9,1,18,0.32
2013-7-11,84,72,61,70,64,60,99,79,46,29.98,29.90,7,1,10,0.01
2013-7-12,88,70,56,66,60,55,99,75,39,30.05,29.96,4,0,8,0.01
2013-7-13,87,71,54,68,61,54,98,75,44,30.03,29.94,5,0,9,0.00
2013-7-14,88,76,60,72,67,59,98,77,53,30.07,29.98,8,1,11,0.00
2013-7-15,91,78,66,76,72,66,98,84,61,30.15,30.06,6,0,11,0.00
2013-7-16,92,80,69,76,73,68,99,80,55,30.22,30.13,4,0,7,0.00
2013-7-17,97,81,68,78,73,68,99,78,49,30.24,30.10,3,0,5,0.00
2013-7-18,97,82,69,77,73,69,98,77,47,30.13,29.93,2,0,5,0.00
2013-7-19,96,81,70,77,73,70,98,79,44,29.94,29.80,7,1,11,0.00
2013-7-20,93,78,69,77,72,68,98,81,54,29.84,29.73,5,1,12,0.02
2013-7-21,82,75,70,74,72,69,99,89,68,29.86,29.76,5,0,9,0.01
2013-7-22,91,79,68,78,72,68,99,83,56,29.80,29.70,9,1,12,0.00
2013-7-23,92,81,73,77,72,67,97,75,55,29.81,29.67,9,1,10,0.00
2013-7-24,83,74,59,68,61,57,93,66,43,29.96,29.82,10,1,12,0.00
2013-7-25,84,69,53,63,58,53,98,74,41,30.05,29.96,4,0,9,0.00
2013-7-26,73,69,63,70,66,61,98,90,80,30.01,29.89,4,0,9,0.08
2013-7-27,78,68,54,68,59,53,99,77,44,29.95,29.89,9,1,16,0.03
2013-7-28,82,66,48,61,54,47,98,72,39,30.00,29.93,8,1,14,0.00
2013-7-29,78,67,55,69,63,54,98,88,70,30.09,30.00,3,0,6,0.00
2013-7-30,74,70,65,73,69,62,99,94,74,30.04,29.91,4,0,11,0.36
2013-7-31,84,74,64,75,71,63,100,90,67,29.98,29.91,10,1,11,0.00
2013-8-1,88,72,59,70,64,59,99,79,44,30.02,29.92,6,0,11,0.00
2013-8-2,82,72,63,73,68,62,99,89,66,29.93,29.84,6,0,11,0.06
2013-8-3,86,75,66,74,70,65,100,87,60,30.04,29.85,3,0,9,0.00
2013-8-4,81,71,60,67,63,59,99,79,51,30.10,30.00,3,0,7,0.00
2013-8-5,76,71,66,70,66,63,95,86,80,30.03,29.81,4,0,12,0.00
2013-8-6,89,78,71,74,72,70,99,83,57,29.86,29.77,8,1,13,0.00
2013-8-7,90,77,70,74,71,69,97,83,53,29.85,29.73,10,1,14,0.04
2013-8-8,82,74,67,76,71,67,99,91,75,29.90,29.81,4,0,10,0.00
2013-8-9,80,73,67,74,71,67,99,91,75,30.00,29.88,3,0,8,0.01
2013-8-10,86,75,62,71,66,60,99,78,47,30.07,29.99,8,1,13,0.00
2013-8-11,90,72,56,66,61,56,99,74,37,30.08,29.97,3,0,7,0.00
2013-8-12,80,72,65,75,69,63,99,91,81,30.00,29.85,6,0,10,0.81
2013-8-13,80,70,62,69,65,60,100,84,55,30.06,29.89,7,1,12,0.01
2013-8-14,76,63,50,59,54,49,99,76,45,30.14,30.06,5,0,9,0.00
2013-8-15,78,62,51,59,54,50,99,79,42,30.11,30.01,7,0,10,0.01
2013-8-16,78,63,50,63,56,50,99,80,49,30.09,30.04,6,0,11,0.00
2013-8-17,82,67,54,64,59,53,99,78,49,30.12,30.03,4,0,10,0.00
2013-8-18,84,69,58,66,62,57,98,81,49,30.11,30.01,8,0,10,0.00
2013-8-19,88,72,58,70,63,57,98,78,45,30.07,29.95,6,0,7,0.00
2013-8-20,89,74,60,71,65,59,98,78,45,30.05,29.96,6,0,10,0.00
2013-8-21,92,76,62,70,66,62,98,76,42,30.06,29.96,7,1,11,0.00
2013-8-22,92,78,65,76,70,65,99,78,48,30.04,29.95,5,1,11,0.00
2013-8-23,90,78,67,76,71,67,99,81,54,30.03,29.95,4,0,8,0.00
2013-8-24,94,77,62,72,67,62,99,75,38,30.13,30.02,6,0,10,0.00
2013-8-25,94,77,61,72,66,60,98,74,34,30.19,30.09,3,0,9,0.00
2013-8-26,95,81,68,76,71,67,99,76,46,30.14,30.00,7,1,11,0.00
2013-8-27,94,81,69,75,70,68,98,74,43,30.02,29.91,8,1,14,0.00
2013-8-28,97,80,65,71,68,64,98,70,35,29.97,29.90,8,1,12,0.00
2013-8-29,98,80,67,74,69,66,97,73,38,29.98,29.87,6,1,11,0.00
2013-8-30,99,83,68,76,71,67,97,71,38,29.90,29.76,7,1,14,0.00
2013-8-31,100,86,74,74,72,66,92,66,38,29.77,29.64,17,2,24,0.00
2013-9-1,91,79,71,77,72,68,96,80,59,29.77,29.69,8,0,22,0.02
2013-9-2,88,75,61,70,64,59,96,70,41,29.89,29.77,9,1,14,0.00
2013-9-3,85,68,53,63,56,52,98,70,32,30.02,29.90,7,1,10,0.00
2013-9-4,90,69,52,63,57,51,97,70,33,30.10,30.01,4,0,8,0.00
2013-9-5,90,71,55,67,61,54,97,75,40,30.14,30.05,4,0,8,0.00
2013-9-6,92,74,59,66,62,58,97,71,35,30.11,29.96,6,0,11,0.00
2013-9-7,94,76,59,69,63,58,98,69,34,29.98,29.84,9,1,14,0.00
2013-9-8,85,75,70,75,70,66,98,86,68,29.95,29.83,4,0,10,0.24
2013-9-9,98,82,70,75,70,66,98,71,36,29.90,29.83,11,1,16,0.00
2013-9-10,98,81,67,73,66,61,98,68,31,30.01,29.90,11,1,17,0.00
2013-9-11,97,80,64,70,67,64,97,69,36,30.06,29.95,8,0,12,0.00
2013-9-12,86,77,68,71,65,51,95,68,40,30.01,29.91,4,1,11,0.00
2013-9-13,77,64,49,57,51,46,95,67,39,30.07,29.99,4,1,14,0.00
2013-9-14,79,60,44,51,46,42,96,67,28,30.11,29.97,6,1,10,0.00
2013-9-15,84,66,50,67,55,46,98,71,41,30.04,29.93,6,1,12,0.03
2013-9-16,71,65,58,66,60,56,98,85,66,30.20,30.04,6,1,12,0.03
2013-9-17,74,65,57,67,61,55,94,86,71,30.17,30.00,6,0,8,0.01
2013-9-18,88,74,65,71,68,63,98,82,54,30.00,29.88,18,1,18,0.15
2013-9-19,91,80,73,74,71,69,90,75,51,29.92,29.78,10,2,16,0.00
2013-9-20,77,68,57,71,66,56,99,94,78,29.86,29.80,8,0,22,0.35
2013-9-21,74,59,48,55,51,47,99,79,45,29.93,29.85,9,1,13,0.01
2013-9-22,78,59,42,56,49,41,99,76,38,29.97,29.87,5,0,9,0.01
2013-9-23,80,60,43,56,50,43,98,75,38,29.97,29.84,6,1,11,0.00
2013-9-24,84,65,48,66,58,47,97,79,48,29.90,29.70,4,0,11,0.01
2013-9-25,82,69,61,69,65,60,99,87,57,29.80,29.71,1,0,7,0.00
2013-9-26,86,69,55,68,60,55,99,78,41,29.94,29.80,9,1,10,0.00
2013-9-27,85,69,55,66,60,54,98,77,46,30.03,29.91,7,1,11,0.00
2013-9-28,84,71,60,69,64,57,98,79,53,29.97,29.86,9,1,18,0.11
2013-9-29,77,64,50,69,55,48,98,77,40,30.00,29.90,6,1,13,0.02
2013-9-30,80,62,46,65,56,45,99,83,52,29.94,29.82,7,1,13,0.00
2013-10-1,84,72,63,71,67,62,98,86,61,29.95,29.87,6,1,10,0.01
2013-10-2,85,72,64,71,68,63,99,87,60,29.99,29.89,9,1,10,0.00
2013-10-3,86,76,66,71,69,65,96,81,61,29.90,29.79,9,2,16,0.00
2013-10-4,86,76,67,71,70,66,98,81,58,29.90,29.81,12,2,19,0.01
2013-10-5,75,68,54,71,65,52,98,92,76,29.89,29.77,9,1,16,0.28
2013-10-6,58,52,45,53,45,41,98,79,54,29.87,29.81,16,3,27,0.01
2013-10-7,72,57,46,51,48,45,95,73,41,30.09,29.87,9,1,12,0.00
2013-10-8,76,56,41,55,47,40,98,77,37,30.15,30.06,6,0,14,0.00
2013-10-9,77,56,39,56,48,38,98,78,44,30.13,30.02,6,0,9,0.00
2013-10-10,81,62,47,64,55,47,98,80,49,30.09,29.94,5,0,14,0.01
2013-10-11,81,64,51,63,56,50,99,79,44,29.97,29.83,11,1,17,0.00
2013-10-12,78,64,47,65,57,46,98,80,53,30.14,29.87,6,1,14,0.07
2013-10-13,75,54,39,48,41,37,98,69,27,30.33,30.14,4,0,11,0.00
2013-10-14,68,55,39,55,45,38,94,70,44,30.29,30.00,4,0,9,0.00
2013-10-15,68,62,55,65,60,51,98,90,81,30.00,29.83,7,1,10,0.37
2013-10-16,60,51,42,50,44,40,96,79,58,30.01,29.92,9,1,12,0.00
2013-10-17,65,51,43,50,44,40,98,81,42,29.97,29.87,9,1,17,0.02
2013-10-18,61,50,39,47,42,38,97,76,50,30.03,29.92,6,1,12,0.05
2013-10-19,59,46,40,42,39,35,96,79,43,30.00,29.92,12,2,26,0.19
2013-10-20,72,54,36,46,41,35,97,68,35,29.94,29.82,16,2,19,0.00
2013-10-21,57,47,34,47,41,32,97,80,57,30.03,29.88,7,1,13,0.00
2013-10-22,62,45,30,50,38,29,97,80,50,30.03,29.76,12,2,20,0.08
2013-10-23,50,44,36,38,34,30,91,71,47,30.11,29.97,8,2,16,0.00
2013-10-24,51,40,27,37,29,25,96,71,40,30.39,30.09,9,2,20,0.00
2013-10-25,56,38,22,33,27,21,94,69,30,30.51,30.18,5,1,9,0.01
2013-10-26,67,49,33,46,36,29,86,63,43,30.18,29.97,15,2,19,0.00
2013-10-27,63,42,26,35,30,25,95,69,29,30.10,29.97,4,0,7,0.00
2013-10-28,70,48,30,50,39,28,96,75,40,30.18,30.02,5,0,10,0.00
2013-10-29,59,51,40,58,49,39,99,94,81,30.19,30.00,6,0,11,0.26
2013-10-30,74,65,56,68,62,56,100,92,79,30.00,29.76,7,1,16,0.02
2013-10-31,66,61,48,65,59,46,97,94,86,29.75,29.33,11,2,20,0.72
2013-11-1,63,53,45,49,45,40,96,76,47,29.82,29.59,12,2,18,0.01
2013-11-2,56,47,34,43,40,33,95,77,48,30.15,29.81,9,2,15,0.00
2013-11-3,60,44,28,42,34,28,97,72,38,30.27,30.10,7,1,11,0.01
2013-11-4,60,53,47,48,42,37,75,68,57,30.18,30.05,7,2,22,0.00
2013-11-5,61,56,52,56,52,47,97,87,75,30.20,29.93,6,1,11,0.26
2013-11-6,59,48,35,59,46,33,97,92,80,30.24,29.84,15,2,28,0.31
2013-11-7,57,40,29,40,34,28,97,82,46,30.37,30.24,13,1,17,0.01
2013-11-8,61,44,26,37,32,25,97,67,31,30.34,30.05,11,2,15,0.01
2013-11-9,68,52,39,43,39,36,93,65,36,30.20,30.02,16,2,20,0.00
2013-11-10,58,44,33,38,32,25,95,68,29,30.38,30.20,3,0,7,0.00
2013-11-11,69,48,34,50,39,31,92,73,47,30.45,30.08,14,2,20,0.09
2013-11-12,37,29,18,31,20,15,91,70,42,30.74,30.46,12,2,18,0.00
2013-11-13,50,30,15,21,16,11,92,62,22,30.69,30.29,8,1,11,0.00
2013-11-14,60,42,20,27,21,14,91,50,18,30.29,30.01,10,2,16,0.00
2013-11-15,57,50,46,44,35,26,86,58,38,30.02,29.88,9,2,17,0.00
2013-11-16,66,60,48,62,55,45,94,84,77,29.88,29.56,18,4,25,0.08
2013-11-17,80,67,50,66,48,17,95,58,15,29.93,29.34,25,6,34,0.00
2013-11-18,57,44,30,40,33,26,94,70,30,30.27,29.94,10,1,20,0.00
2013-11-19,53,37,26,33,28,24,95,72,40,30.32,30.18,7,0,9,0.00
2013-11-20,49,41,35,43,35,29,92,79,70,30.17,29.99,8,2,12,0.14
2013-11-21,51,50,47,50,48,43,97,93,80,30.14,30.03,3,0,8,0.23
2013-11-22,51,39,35,50,37,32,97,92,86,30.49,30.15,10,3,15,0.00
2013-11-23,35,29,18,32,19,10,89,67,40,30.71,30.48,11,2,16,0.00
2013-11-24,31,22,10,15,11,6,90,65,35,30.75,30.43,6,1,8,0.00
2013-11-25,34,30,27,18,16,14,62,59,50,30.43,30.27,7,1,9,0.00
2013-11-30,61,49,35,40,37,33,92,66,45,30.21,30.03,8,1,15,0.00
2013-12-1,60,42,29,44,36,28,97,83,54,30.09,29.84,3,0,6,0.00
2013-12-2,61,44,34,48,40,33,96,86,58,29.84,29.62,3,0,10,0.00
2013-12-3,62,52,42,53,49,41,98,89,71,29.65,29.57,11,2,16,0.00
2013-12-4,68,56,41,57,50,35,98,83,63,29.82,29.47,15,2,20,0.00
2013-12-5,41,29,22,35,24,16,91,80,68,30.28,29.82,12,3,18,0.00
2013-12-6,23,21,15,20,14,7,90,77,62,30.59,30.26,9,2,13,0.00
2013-12-7,23,16,4,14,8,-1,87,69,52,30.71,30.45,6,1,12,0.00
2013-12-8,28,24,20,26,21,12,93,87,64,30.45,30.01,5,1,9,0.00
2013-12-9,29,25,22,27,18,14,92,74,64,30.32,30.08,11,2,16,0.00
2013-12-10,38,24,12,19,15,8,89,70,43,30.32,30.24,13,2,19,0.00
2013-12-11,34,22,10,23,13,4,92,72,49,30.66,30.30,11,1,15,0.01
2013-12-12,41,22,4,18,10,2,88,65,33,30.65,30.26,12,2,14,0.01
2013-12-13,35,28,15,33,24,13,95,88,60,30.26,29.91,6,1,9,0.28
2013-12-14,35,32,28,34,31,25,97,94,90,30.13,29.81,11,2,16,0.14
2013-12-15,40,30,25,33,27,22,96,87,74,30.18,30.00,10,2,15,0.11
2013-12-16,49,35,25,36,31,24,97,87,60,30.11,29.96,3,0,7,0.04
2013-12-17,45,34,25,33,27,23,95,77,54,30.27,30.10,11,2,16,0.00
2013-12-18,56,39,20,40,27,19,94,67,37,30.27,29.91,17,2,23,0.00
2013-12-19,61,53,45,52,46,39,85,77,66,29.91,29.72,18,3,21,0.00
2013-12-20,71,53,36,60,49,35,94,84,65,29.82,29.63,12,3,21,0.19
2013-12-21,36,34,33,35,33,32,97,96,94,29.80,29.53,5,1,12,0.84
2013-12-22,35,33,28,34,31,24,97,92,85,30.27,29.63,10,2,16,0.06
2013-12-23,28,22,13,25,16,7,87,79,66,30.59,30.27,10,2,16,0.00
2013-12-24,26,16,4,13,6,0,88,65,38,30.62,30.33,9,2,15,0.00
2013-12-25,38,32,22,31,25,13,89,78,68,30.36,30.22,7,2,12,0.00
2013-12-26,52,35,21,32,25,19,94,71,29,30.36,30.21,7,1,15,0.00
2013-12-27,58,37,24,33,28,22,93,72,31,30.36,30.21,6,1,9,0.00
2013-12-28,61,43,28,34,29,26,92,63,27,30.22,29.87,7,1,18,0.01
2013-12-29,43,30,19,33,24,10,87,76,63,30.25,29.83,12,3,19,0.00
2013-12-30,32,21,9,15,7,1,83,58,37,30.34,30.20,7,0,10,0.00
2013-12-31,48,35,19,26,20,15,85,56,35,30.39,30.14,6,1,12,0.00
2014-1-1,48,35,22,30,26,20,92,73,46,30.14,29.96,10,1,12,0.00
2014-1-2,26,18,5,24,12,2,91,80,64,30.48,30.05,10,3,22,0.00